This is the latest recevied weather packets stored in our database for station/object YD2CLX-11. If no packets are shown the sender has not sent any weather packets the latest 10 day(s).
| Time | Temp. | Humidity | Pressure | Rain* | Wind** | Luminosity | Snow |
|---|---|---|---|---|---|---|---|
| 1787777442 | 20° C | 84% | 1000.8 hPa | - | - | - | - |
| 1787776841 | 20.56° C | 84% | 1000.7 hPa | - | - | - | - |
| 1787776240 | 20.56° C | 84% | 1000.6 hPa | - | - | - | - |
| 1787775640 | 20.56° C | 84% | 1000.5 hPa | - | - | - | - |
| 1787775039 | 20.56° C | 84% | 1000.6 hPa | - | - | - | - |
| 1787774438 | 20.56° C | 84% | 1000.4 hPa | - | - | - | - |
| 1787773837 | 21.11° C | 83% | 1000.4 hPa | - | - | - | - |
| 1787772636 | 21.11° C | 83% | 1000.3 hPa | - | - | - | - |
| 1787772035 | 21.11° C | 83% | 1000.3 hPa | - | - | - | - |
| 1787771437 | 21.67° C | 83% | 1000.4 hPa | - | - | - | - |
| 1787770833 | 21.67° C | 84% | 1000.4 hPa | - | - | - | - |
| 1787770232 | 21.67° C | 84% | 1000.3 hPa | - | - | - | - |
| 1787769632 | 21.67° C | 85% | 1000.2 hPa | - | - | - | - |
| 1787769031 | 21.67° C | 85% | 1000.2 hPa | - | - | - | - |
| 1787768430 | 21.67° C | 86% | 1000.3 hPa | - | - | - | - |
| 1787767829 | 21.67° C | 85% | 1000.3 hPa | - | - | - | - |
| 1787767229 | 22.22° C | 84% | 1000.4 hPa | - | - | - | - |
| 1787766628 | 22.22° C | 84% | 1000.5 hPa | - | - | - | - |
| 1787766027 | 22.78° C | 83% | 1000.5 hPa | - | - | - | - |
| 1787765426 | 22.78° C | 83% | 1000.5 hPa | - | - | - | - |
| 1787764825 | 22.22° C | 84% | 1000.6 hPa | - | - | - | - |
| 1787764225 | 22.78° C | 83% | 1000.7 hPa | - | - | - | - |
| 1787763624 | 22.22° C | 84% | 1000.8 hPa | - | - | - | - |
| 1787763023 | 22.78° C | 83% | 1000.9 hPa | - | - | - | - |
| 1787762422 | 22.78° C | 82% | 1001 hPa | - | - | - | - |
* Rain since midnight (hover to see other rain measurements)
** Current wind speed in m/s (hover to see current wind gust speed)